| time (UTC) | temp F | wind direction | speed MPH | gust MPH | rain 1hr in | rain 24hr in | rain mn in | humidity % | barometer mb |
| 20260504042008 | 48 | 294 | 0.0 | 2.0 | 0.00 | 0.00 | 0.00 | 56 | 1013.0 |
| 20260504041515 | 48 | 292 | 0.0 | 2.0 | 0.00 | 0.00 | 0.00 | 54 | 1013.0 |
| 20260504041003 | 48 | 290 | 0.0 | 2.0 | 0.00 | 0.00 | 0.00 | 55 | 1013.0 |
| 20260504040509 | 48 | 294 | 0.0 | 2.0 | 0.00 | 0.00 | 0.00 | 54 | 1013.0 |
| 20260504040024 | 48 | 288 | 0.0 | 0.0 | 0.00 | 0.00 | 0.00 | 53 | 1013.0 |
| 20260504035506 | 48 | 289 | 0.0 | 0.0 | 0.00 | 0.00 | 0.00 | 54 | 1013.0 |
| 20260504035007 | 48 | 289 | 0.0 | 0.0 | 0.00 | 0.00 | 0.00 | 54 | 1013.0 |
| 20260504034519 | 48 | 288 | 0.0 | 0.0 | 0.00 | 0.00 | 0.00 | 53 | 1013.0 |
| 20260504034013 | 49 | 288 | 0.0 | 0.0 | 0.00 | 0.00 | 0.00 | 52 | 1012.9 |
| 20260504033506 | 49 | 289 | 0.0 | 0.0 | 0.00 | 0.00 | 0.00 | 51 | 1013.0 |
| 20260504033028 | 49 | 289 | 0.0 | 0.0 | 0.00 | 0.00 | 0.00 | 53 | 1012.9 |
| 20260504032510 | 49 | 289 | 0.0 | 0.0 | 0.00 | 0.00 | 0.00 | 52 | 1012.9 |
| 20260504032013 | 49 | 288 | 0.0 | 0.0 | 0.00 | 0.00 | 0.00 | 52 | 1013.0 |
| 20260504031528 | 49 | 289 | 0.0 | 0.0 | 0.00 | 0.00 | 0.00 | 52 | 1012.9 |
| 20260504031013 | 49 | 288 | 0.0 | 2.0 | 0.00 | 0.00 | 0.00 | 52 | 1013.0 |
| 20260504030509 | 49 | 289 | 0.0 | 2.0 | 0.00 | 0.00 | 0.00 | 51 | 1013.1 |
| 20260504030017 | 50 | 289 | 0.0 | 2.0 | 0.00 | 0.00 | 0.00 | 51 | 1013.1 |
| 20260504025509 | 49 | 289 | 0.0 | 0.0 | 0.00 | 0.00 | 0.00 | 52 | 1013.1 |
| 20260504025005 | 49 | 289 | 0.0 | 0.0 | 0.00 | 0.00 | 0.00 | 52 | 1013.2 |
| 20260504024520 | 50 | 288 | 0.0 | 0.0 | 0.00 | 0.00 | 0.00 | 51 | 1013.2 |
| 20260504024009 | 50 | 289 | 0.0 | 0.0 | 0.00 | 0.00 | 0.00 | 51 | 1013.3 |
| 20260504023506 | 50 | 288 | 0.0 | 0.0 | 0.00 | 0.00 | 0.00 | 50 | 1013.3 |
| 20260504023027 | 50 | 289 | 0.0 | 2.0 | 0.00 | 0.00 | 0.00 | 50 | 1013.3 |
| 20260504022508 | 51 | 288 | 0.0 | 2.0 | 0.00 | 0.00 | 0.00 | 49 | 1013.3 |
| 20260504022004 | 51 | 289 | 0.0 | 2.0 | 0.00 | 0.00 | 0.00 | 49 | 1013.3 |
| 20260504021511 | 51 | 289 | 0.0 | 2.0 | 0.00 | 0.00 | 0.00 | 48 | 1013.4 |
| 20260504021004 | 51 | 288 | 0.0 | 2.0 | 0.00 | 0.00 | 0.00 | 49 | 1013.4 |
| 20260504020505 | 51 | 287 | 0.0 | 2.0 | 0.00 | 0.00 | 0.00 | 49 | 1013.4 |
| 20260504020013 | 51 | 270 | 0.0 | 2.0 | 0.00 | 0.00 | 0.00 | 49 | 1013.4 |
| 20260504015506 | 51 | 277 | 0.0 | 2.0 | 0.00 | 0.00 | 0.00 | 48 | 1013.4 |
| 20260504015009 | 51 | 279 | 0.0 | 2.0 | 0.00 | 0.00 | 0.00 | 48 | 1013.4 |
| 20260504014517 | 51 | 281 | 0.0 | 2.0 | 0.00 | 0.00 | 0.00 | 48 | 1013.4 |
| 20260504014009 | 52 | 280 | 0.0 | 2.0 | 0.00 | 0.00 | 0.00 | 47 | 1013.4 |
| 20260504013510 | 51 | 274 | 0.0 | 0.0 | 0.00 | 0.00 | 0.00 | 48 | 1013.3 |
| 20260504013022 | 52 | 274 | 0.0 | 1.0 | 0.00 | 0.00 | 0.00 | 47 | 1013.3 |
| 20260504012506 | 52 | 265 | 0.0 | 2.0 | 0.00 | 0.00 | 0.00 | 46 | 1013.3 |
| 20260504012007 | 52 | 265 | 0.0 | 2.0 | 0.00 | 0.00 | 0.00 | 45 | 1013.3 |
| 20260504011526 | 52 | 263 | 0.0 | 2.0 | 0.00 | 0.00 | 0.00 | 46 | 1013.2 |
| 20260504011012 | 52 | 263 | 0.0 | 2.0 | 0.00 | 0.00 | 0.00 | 45 | 1013.2 |
| 20260504010504 | 52 | 275 | 0.0 | 2.0 | 0.00 | 0.00 | 0.00 | 45 | 1013.1 |
| 20260504010009 | 53 | 275 | 0.0 | 2.0 | 0.00 | 0.00 | 0.00 | 45 | 1013.1 |
| 20260504005505 | 53 | 275 | 0.0 | 2.0 | 0.00 | 0.00 | 0.00 | 45 | 1013.1 |
| 20260504005011 | 53 | 275 | 0.0 | 2.0 | 0.00 | 0.00 | 0.00 | 45 | 1013.1 |
| 20260504004514 | 53 | 275 | 0.0 | 2.0 | 0.00 | 0.00 | 0.00 | 45 | 1013.1 |
| 20260504004010 | 53 | 269 | 0.0 | 2.0 | 0.00 | 0.00 | 0.00 | 44 | 1013.1 |
| 20260504003509 | 53 | 269 | 0.0 | 2.0 | 0.00 | 0.00 | 0.00 | 44 | 1013.1 |
| 20260504003023 | 54 | 233 | 0.0 | 2.0 | 0.00 | 0.00 | 0.00 | 44 | 1013.2 |
| 20260504002509 | 54 | 289 | 0.0 | 2.0 | 0.00 | 0.00 | 0.00 | 44 | 1013.1 |
| 20260504002011 | 54 | 289 | 0.0 | 2.0 | 0.00 | 0.00 | 0.00 | 42 | 1013.1 |
| 20260504001523 | 54 | 292 | 0.0 | 2.0 | 0.00 | 0.00 | 0.00 | 42 | 1013.1 |
| 20260504001007 | 55 | 283 | 0.0 | 2.0 | 0.00 | 0.00 | 0.00 | 41 | 1013.0 |
| 20260504000507 | 55 | 262 | 0.0 | 3.0 | 0.00 | 0.00 | 0.00 | 41 | 1013.0 |
| 20260504000027 | 55 | 276 | 0.0 | 3.0 | 0.00 | 0.00 | 0.00 | 40 | 1013.0 |
| 20260503235509 | 55 | 286 | 0.0 | 2.0 | 0.00 | 0.00 | 0.00 | 40 | 1013.0 |
| 20260503235011 | 55 | 250 | 0.0 | 2.0 | 0.00 | 0.00 | 0.00 | 40 | 1013.0 |
| 20260503234529 | 56 | 314 | 0.0 | 3.0 | 0.00 | 0.00 | 0.00 | 39 | 1013.0 |
| 20260503234009 | 56 | 302 | 1.0 | 3.0 | 0.00 | 0.00 | 0.00 | 38 | 1013.0 |
| 20260503233508 | 56 | 334 | 1.0 | 5.0 | 0.00 | 0.00 | 0.00 | 38 | 1013.1 |
| 20260503233028 | 56 | 297 | 1.0 | 7.0 | 0.00 | 0.00 | 0.00 | 38 | 1013.0 |
| 20260503232507 | 56 | 290 | 1.0 | 7.0 | 0.00 | 0.00 | 0.00 | 38 | 1013.1 |
| 20260503232011 | 57 | 284 | 0.0 | 4.0 | 0.00 | 0.00 | 0.00 | 39 | 1013.2 |
| 20260503231524 | 57 | 281 | 1.0 | 4.0 | 0.00 | 0.00 | 0.00 | 38 | 1013.2 |
| 20260503231007 | 57 | 269 | 1.0 | 7.0 | 0.00 | 0.00 | 0.00 | 39 | 1013.2 |
| 20260503230507 | 57 | 304 | 1.0 | 7.0 | 0.00 | 0.00 | 0.00 | 37 | 1013.1 |
| 20260503230022 | 57 | 288 | 0.0 | 4.0 | 0.00 | 0.00 | 0.00 | 38 | 1013.1 |
| 20260503225510 | 57 | 267 | 0.0 | 7.0 | 0.00 | 0.00 | 0.00 | 37 | 1013.1 |
| 20260503225011 | 57 | 149 | 1.0 | 8.0 | 0.00 | 0.00 | 0.00 | 37 | 1013.0 |
| 20260503224527 | 57 | 279 | 1.0 | 8.0 | 0.00 | 0.00 | 0.00 | 37 | 1013.0 |
| 20260503224009 | 57 | 310 | 1.0 | 7.0 | 0.00 | 0.00 | 0.00 | 38 | 1013.1 |
| 20260503223512 | 58 | 247 | 2.0 | 7.0 | 0.00 | 0.00 | 0.00 | 37 | 1013.2 |
| 20260503223028 | 58 | 71 | 1.0 | 7.0 | 0.00 | 0.00 | 0.00 | 37 | 1013.2 |
| 20260503222508 | 58 | 254 | 2.0 | 9.0 | 0.00 | 0.00 | 0.00 | 35 | 1013.3 |
| 20260503222010 | 58 | 146 | 2.0 | 9.0 | 0.00 | 0.00 | 0.00 | 36 | 1013.3 |
| 20260503221523 | 58 | 266 | 1.0 | 9.0 | 0.00 | 0.00 | 0.00 | 36 | 1013.4 |
| 20260503221007 | 58 | 120 | 2.0 | 4.0 | 0.00 | 0.00 | 0.00 | 36 | 1013.4 |
| 20260503220508 | 58 | 299 | 1.0 | 8.0 | 0.00 | 0.00 | 0.00 | 37 | 1013.4 |
| 20260503220027 | 58 | 257 | 2.0 | 8.0 | 0.00 | 0.00 | 0.00 | 36 | 1013.4 |
| 20260503215511 | 59 | 269 | 1.0 | 8.0 | 0.00 | 0.00 | 0.00 | 36 | 1013.4 |
| 20260503215009 | 59 | 278 | 1.0 | 8.0 | 0.00 | 0.00 | 0.00 | 36 | 1013.4 |
| 20260503214528 | 58 | 149 | 2.0 | 8.0 | 0.00 | 0.00 | 0.00 | 37 | 1013.4 |
| 20260503214007 | 58 | 295 | 1.0 | 7.0 | 0.00 | 0.00 | 0.00 | 36 | 1013.3 |
| 20260503213508 | 57 | 313 | 2.0 | 7.0 | 0.00 | 0.00 | 0.00 | 38 | 1013.3 |
| 20260503213030 | 57 | 243 | 2.0 | 6.0 | 0.00 | 0.00 | 0.00 | 37 | 1013.2 |
| 20260503212509 | 57 | 160 | 1.0 | 6.0 | 0.00 | 0.00 | 0.00 | 39 | 1013.3 |
| 20260503212009 | 58 | 282 | 1.0 | 6.0 | 0.00 | 0.00 | 0.00 | 37 | 1013.3 |
| 20260503211530 | 58 | 150 | 2.0 | 6.0 | 0.00 | 0.00 | 0.00 | 36 | 1013.3 |
| 20260503211012 | 59 | 306 | 3.0 | 9.0 | 0.00 | 0.00 | 0.00 | 35 | 1013.2 |
| 20260503210510 | 59 | 55 | 3.0 | 9.0 | 0.00 | 0.00 | 0.00 | 35 | 1013.2 |
| 20260503210028 | 59 | 325 | 2.0 | 5.0 | 0.00 | 0.00 | 0.00 | 36 | 1013.3 |
| 20260503205507 | 59 | 275 | 2.0 | 8.0 | 0.00 | 0.00 | 0.00 | 37 | 1013.4 |
| 20260503205007 | 58 | 299 | 1.0 | 9.0 | 0.00 | 0.00 | 0.00 | 37 | 1013.4 |
| 20260503204515 | 58 | 259 | 2.0 | 9.0 | 0.00 | 0.00 | 0.00 | 37 | 1013.5 |
| 20260503204005 | 58 | 300 | 2.0 | 7.0 | 0.00 | 0.00 | 0.00 | 36 | 1013.5 |
| 20260503203505 | 60 | 294 | 2.0 | 7.0 | 0.00 | 0.00 | 0.00 | 36 | 1013.5 |
| 20260503203013 | 58 | 277 | 2.0 | 6.0 | 0.00 | 0.00 | 0.00 | 36 | 1013.6 |
| 20260503202505 | 58 | 223 | 1.0 | 6.0 | 0.00 | 0.00 | 0.00 | 37 | 1013.7 |
| 20260503202010 | 59 | 211 | 2.0 | 6.0 | 0.00 | 0.00 | 0.00 | 36 | 1013.8 |
| 20260503201518 | 58 | 202 | 2.0 | 6.0 | 0.00 | 0.00 | 0.00 | 36 | 1013.7 |
| 20260503201005 | 58 | 201 | 1.0 | 10.0 | 0.00 | 0.00 | 0.00 | 37 | 1013.8 |
| 20260503200509 | 58 | 263 | 2.0 | 10.0 | 0.00 | 0.00 | 0.00 | 36 | 1013.8 |
| 20260503200021 | 58 | 240 | 2.0 | 6.0 | 0.00 | 0.00 | 0.00 | 37 | 1013.7 |
| 20260503195510 | 58 | 292 | 1.0 | 6.0 | 0.00 | 0.00 | 0.00 | 40 | 1013.8 |
| 20260503195007 | 58 | 249 | 2.0 | 7.0 | 0.00 | 0.00 | 0.00 | 37 | 1014.0 |
| 20260503194526 | 59 | 290 | 2.0 | 7.0 | 0.00 | 0.00 | 0.00 | 36 | 1014.0 |
| 20260503194011 | 58 | 331 | 2.0 | 6.0 | 0.00 | 0.00 | 0.00 | 39 | 1014.0 |
| 20260503193504 | 59 | 319 | 2.0 | 6.0 | 0.00 | 0.00 | 0.00 | 36 | 1014.1 |
| 20260503193008 | 59 | 277 | 2.0 | 6.0 | 0.00 | 0.00 | 0.00 | 38 | 1014.1 |
| 20260503192504 | 59 | 290 | 2.0 | 6.0 | 0.00 | 0.00 | 0.00 | 38 | 1014.3 |
| 20260503192007 | 58 | 288 | 1.0 | 5.0 | 0.00 | 0.00 | 0.00 | 38 | 1014.3 |
| 20260503191528 | 58 | 201 | 2.0 | 5.0 | 0.00 | 0.00 | 0.00 | 35 | 1014.4 |
| 20260503191005 | 57 | 217 | 1.0 | 8.0 | 0.00 | 0.00 | 0.00 | 36 | 1014.6 |
| 20260503190504 | 57 | 242 | 1.0 | 8.0 | 0.00 | 0.00 | 0.00 | 37 | 1014.7 |
| 20260503190017 | 58 | 271 | 2.0 | 7.0 | 0.00 | 0.00 | 0.00 | 38 | 1014.9 |
| 20260503185510 | 59 | 287 | 2.0 | 7.0 | 0.00 | 0.00 | 0.00 | 37 | 1014.9 |
| 20260503185006 | 58 | 290 | 2.0 | 5.0 | 0.00 | 0.00 | 0.00 | 40 | 1015.0 |
| 20260503184525 | 59 | 96 | 1.0 | 4.0 | 0.00 | 0.00 | 0.00 | 37 | 1015.0 |
| 20260503184010 | 58 | 275 | 1.0 | 6.0 | 0.00 | 0.00 | 0.00 | 37 | 1015.1 |
| 20260503183511 | 59 | 290 | 1.0 | 8.0 | 0.00 | 0.00 | 0.00 | 35 | 1015.1 |
| 20260503183026 | 58 | 105 | 1.0 | 8.0 | 0.00 | 0.00 | 0.00 | 38 | 1015.2 |
| 20260503182505 | 57 | 300 | 2.0 | 8.0 | 0.00 | 0.00 | 0.00 | 40 | 1015.2 |
| 20260503182005 | 58 | 211 | 3.0 | 8.0 | 0.00 | 0.00 | 0.00 | 37 | 1015.3 |
| 20260503181513 | 59 | 292 | 2.0 | 8.0 | 0.00 | 0.00 | 0.00 | 38 | 1015.2 |
| 20260503181008 | 58 | 196 | 1.0 | 5.0 | 0.00 | 0.00 | 0.00 | 37 | 1015.3 |
| 20260503180512 | 56 | 134 | 2.0 | 8.0 | 0.00 | 0.00 | 0.00 | 40 | 1015.4 |
| 20260503180021 | 57 | 167 | 3.0 | 8.0 | 0.00 | 0.00 | 0.00 | 39 | 1015.4 |
| 20260503175507 | 56 | 311 | 1.0 | 9.0 | 0.00 | 0.00 | 0.00 | 37 | 1015.6 |
| 20260503175006 | 57 | 5 | 2.0 | 9.0 | 0.00 | 0.00 | 0.00 | 39 | 1015.6 |
| 20260503174523 | 56 | 58 | 1.0 | 6.0 | 0.00 | 0.00 | 0.00 | 40 | 1015.6 |
| 20260503174010 | 57 | 308 | 1.0 | 6.0 | 0.00 | 0.00 | 0.00 | 40 | 1015.6 |
| 20260503173512 | 57 | 331 | 2.0 | 6.0 | 0.00 | 0.00 | 0.00 | 37 | 1015.6 |
| 20260503173025 | 56 | 300 | 1.0 | 6.0 | 0.00 | 0.00 | 0.00 | 38 | 1015.7 |
| 20260503172510 | 57 | 200 | 2.0 | 6.0 | 0.00 | 0.00 | 0.00 | 39 | 1015.8 |
| 20260503172007 | 56 | 201 | 1.0 | 6.0 | 0.00 | 0.00 | 0.00 | 41 | 1015.8 |
| 20260503171529 | 57 | 316 | 2.0 | 9.0 | 0.00 | 0.00 | 0.00 | 38 | 1015.9 |
| 20260503171004 | 56 | 323 | 1.0 | 9.0 | 0.00 | 0.00 | 0.00 | 37 | 1015.9 |
| 20260503170504 | 56 | 15 | 2.0 | 9.0 | 0.00 | 0.00 | 0.00 | 39 | 1015.9 |
| 20260503151012 | 53 | 165 | 1.0 | 6.0 | 0.00 | 0.00 | 0.00 | 42 | 1016.8 |
| 20260503150511 | 52 | 244 | 1.0 | 6.0 | 0.00 | 0.00 | 0.00 | 38 | 1016.8 |
| 20260503131009 | 46 | 84 | 1.0 | 4.0 | 0.00 | 0.00 | 0.00 | 61 | 1017.3 |
| 20260503130510 | 45 | 288 | 1.0 | 4.0 | 0.00 | 0.00 | 0.00 | 63 | 1017.4 |
| 20260503110508 | 36 | 288 | 0.0 | 2.0 | 0.00 | 0.01 | 0.00 | 84 | 1016.5 |
| 20260503090508 | 34 | 256 | 0.0 | 0.0 | 0.00 | 0.01 | 0.00 | 85 | 1015.7 |
| 20260503081526 | 35 | 265 | 0.0 | 0.0 | 0.00 | 0.01 | 0.00 | 83 | 1015.7 |
| 20260503081004 | 35 | 265 | 0.0 | 0.0 | 0.00 | 0.01 | 0.00 | 83 | 1015.6 |
| 20260503080508 | 35 | 268 | 0.0 | 0.0 | 0.00 | 0.01 | 0.00 | 83 | 1015.6 |
| 20260503072508 | 35 | 268 | 0.0 | 0.0 | 0.00 | 0.01 | 0.00 | 81 | 1015.5 |
| 20260503072013 | 35 | 268 | 0.0 | 0.0 | 0.00 | 0.01 | 0.00 | 81 | 1015.4 |
| 20260503071525 | 35 | 271 | 0.0 | 0.0 | 0.00 | 0.01 | 0.00 | 82 | 1015.4 |
| 20260503071005 | 35 | 261 | 0.0 | 0.0 | 0.00 | 0.01 | 0.00 | 82 | 1015.4 |
| 20260503070506 | 35 | 261 | 0.0 | 0.0 | 0.00 | 0.01 | 0.00 | 82 | 1015.4 |
| 20260503055006 | 36 | 241 | 0.0 | 0.0 | 0.00 | 0.01 | 0.00 | 80 | 1015.5 |
| 20260503054513 | 36 | 240 | 0.0 | 0.0 | 0.00 | 0.01 | 0.00 | 80 | 1015.6 |
| 20260503054007 | 36 | 244 | 0.0 | 0.0 | 0.00 | 0.01 | 0.00 | 80 | 1015.6 |
| 20260503053507 | 36 | 244 | 0.0 | 0.0 | 0.00 | 0.01 | 0.00 | 80 | 1015.6 |
| 20260503053023 | 36 | 254 | 0.0 | 0.0 | 0.00 | 0.01 | 0.00 | 81 | 1015.7 |
| 20260503052509 | 36 | 255 | 0.0 | 0.0 | 0.00 | 0.01 | 0.00 | 82 | 1015.7 |
| 20260503052006 | 36 | 283 | 0.0 | 0.0 | 0.00 | 0.01 | 0.00 | 82 | 1015.6 |
| 20260503051522 | 36 | 283 | 0.0 | 0.0 | 0.00 | 0.01 | 0.00 | 81 | 1015.7 |
| 20260503051006 | 35 | 283 | 0.0 | 0.0 | 0.00 | 0.01 | 0.00 | 81 | 1015.7 |
| 20260503050507 | 36 | 283 | 0.0 | 0.0 | 0.00 | 0.01 | 0.00 | 81 | 1015.7 |
| 20260503050029 | 36 | 283 | 0.0 | 0.0 | 0.00 | 0.01 | 0.00 | 80 | 1015.8 |
| 20260503045511 | 36 | 283 | 0.0 | 0.0 | 0.00 | 0.01 | 0.00 | 81 | 1015.8 |
| 20260503045014 | 36 | 283 | 0.0 | 0.0 | 0.00 | 0.01 | 0.00 | 80 | 1015.8 |
| 20260503044527 | 36 | 283 | 0.0 | 0.0 | 0.00 | 0.01 | 0.00 | 80 | 1015.7 |
| 20260503044005 | 36 | 283 | 0.0 | 0.0 | 0.00 | 0.01 | 0.00 | 80 | 1015.7 |
| 20260503043507 | 36 | 282 | 0.0 | 0.0 | 0.00 | 0.01 | 0.00 | 80 | 1015.7 |
| 20260503043032 | 36 | 283 | 0.0 | 0.0 | 0.00 | 0.01 | 0.00 | 80 | 1015.8 |
| 20260503042513 | 36 | 283 | 0.0 | 0.0 | 0.00 | 0.01 | 0.00 | 80 | 1015.8 |